Location: Newark
(33.6439°N, 114.9881°W)
Time: 09:55:33
(UTC+00:00)

Tiros 1 - Pass Details

Date: 28 July 2019
Orbit: 630 x 664 km, 48.4° (Epoch: 19 August)

Event Time Altitude Azimuth Distance (km) Brightness Sun altitude
Rises 23:48:36 0° 305° (NW) 2,995 11.3 34.5°
Reaches altitude 10° 23:51:00 10° 301° (WNW) 2,079 10.8 34.0°
Maximum altitude 23:55:42 57° 223° (SW) 773 8.5 33.0°
Drops below altitude 10° 00:00:22 10° 145° (SE) 2,058 9.5 32.1°
Sets 00:02:43 0° 141° (SE) 2,961 10.2 31.6°
